Flag for U.S.A. Weather past 2 weeks in Palm Springs, California, U.S.A.

Now
94 °F

Sunny.


Feels Like: 92 °F
Forecast: 72 / 94 °F
Wind: 7 mph from North

Location: Palm Springs Regional Airport

Current Time: Sep 4, 2015 at 3:08:29 PM

Latest Report: Sep 4, 2015 at 1:53 PM


Visibility: 10 mi

Pressure: 29.73 "Hg

Humidity: 26%

Dew point: 54 °F

Location of Palm SpringsLocation

Historic Weather in Palm Springs — Graph

°F

Palm Springs temperature yesterday

Maximum temperature yesterday: 101 °F (at 3:53 PM)
Minimum temperature yesterday: 77 °F (at 4:53 AM)
Average temperature yesterday: 88 °F

Past Weeks' High & Low Weather Summary

 TemperatureHumidityPressure
High114 °F (Aug 29, 2:53 PM)56% (Sep 2, 6:53 AM)29.96 "Hg (Sep 2, 6:53 AM)
Low72 °F (Sep 4, 6:53 AM)10% (Aug 29, 2:53 PM)29.65 "Hg (Aug 20, 6:53 PM)
Average94 °F27%29.79 "Hg
* Reported Aug 20 1:53 PM — Sep 4 1:53 PM, Palm Springs, Weather by CustomWeather, © 2015

Note: Actual official high and low records may vary slightly from our data, if they occured in-between our weather recording intervals... More about our weather records

Advertising

Palm Springs weather history for previous 24 hours

 ConditionsComfort  
Time TempWeatherWind HumidityBarometerVisibility
1:53 PM
Fri, Sep 4
94 °FSunny.7 mph26%29.73 "Hg10 mi
12:53 PM92 °FSunny.7 mph31%29.75 "Hg10 mi
11:53 AM88 °FSunny.5 mph39%29.77 "Hg10 mi
10:53 AM87 °FSunny.14 mph37%29.78 "Hg10 mi
9:53 AM84 °FScattered clouds.12 mph37%29.80 "Hg10 mi
8:53 AM80 °FScattered clouds.5 mph42%29.80 "Hg10 mi
7:53 AM75 °FScattered clouds.No wind52%29.79 "Hg10 mi
6:53 AM72 °FPassing clouds.No wind55%29.77 "Hg10 mi
5:53 AM74 °FClear.3 mph50%29.76 "Hg10 mi
4:53 AM75 °FClear.6 mph47%29.75 "Hg10 mi
3:53 AM76 °FClear.6 mph47%29.74 "Hg10 mi
2:53 AM77 °FClear.5 mph44%29.74 "Hg10 mi
1:53 AM79 °FClear.9 mph39%29.74 "Hg10 mi
12:53 AM81 °FClear.7 mph35%29.72 "Hg10 mi
11:53 PM
Thu, Sep 3
83 °FClear.9 mph30%29.71 "Hg10 mi
10:53 PM84 °FClear.14 mph27%29.71 "Hg10 mi
9:53 PM86 °FClear.18 mph26%29.72 "Hg10 mi
8:53 PM88 °FClear.15 mph22%29.71 "Hg10 mi
7:53 PM91 °FSunny.18 mph17%29.68 "Hg10 mi
6:53 PM93 °FSunny.20 mph18%29.66 "Hg10 mi
5:53 PM97 °FSunny.22 mph15%29.66 "Hg10 mi
4:53 PM99 °FSunny.20 mph15%29.66 "Hg10 mi
3:53 PM101 °FSunny.15 mph13%29.67 "Hg10 mi
Weather by CustomWeather, © 2015

See weather overviewHow to use our weather pages